User: anonymous   Login
Location: Bangkok
(13.7500°N, 100.5170°E)
Time: 01:20:29
(UTC+07:00)
Language:

Cosmos 1898 Rocket - Orbit

View from above orbital plane
View from above orbital plane
View from above satellite
View from above satellite

Ground track
Ground track

The orbit data is extracted from the following two-line orbital elements,

1 18586U 87098B   16338.45710105  .00000011  00000-0  12595-4 0  9992
2 18586  74.0069 295.7412 0020149  35.5767 102.6085 14.36750056519256
Epoch (UTC): 03 December 2016 10:58:13
Eccentricity: 0.0020149
inclination: 74.0069°
perigee height: 755 km
apogee height: 783 km
right ascension of ascending node: 295.7412°
argument of perigee: 35.5767°
revolutions per day: 14.36750056
mean anomaly at epoch: 102.6085°
orbit number at epoch: 51925

The dashed part of the orbit path shows where the satellite is in the earth's shadow,  

DLR